Regional Weather Roundup
Issued by NWS

Home | Current Version | Previous Version | Text Only | Print | Product List | Glossary On
Versions: 1 2 3 4 5 6 7 8 9 10 11 12 13 14 15 16 17 18 19 20 21 22 23 24 25 26 27 28 29 30 31 32 33 34 35 36 37 38 39 40 41 42 43 44 45 46 47 48 49 50
000
ASUS43 KLSX 290207
RWRMO

WEATHER SUMMARY FOR MISSOURI
NATIONAL WEATHER SERVICE SPRINGFIELD MO
800 PM CST FRI NOV 28 2014

NOTE: "FAIR" INDICATES FEW OR NO CLOUDS BELOW 12,000 FEET WITH NO
       SIGNIFICANT WEATHER AND/OR OBSTRUCTIONS TO VISIBILITY.
       CURRENT SKY AND/OR WEATHER CONDITIONS ARE NOT AVAILABLE FOR
       CHILLICOTHE AND FARMINGTON.

MOZ001>031-035>038-043-044-053-054-290300-
...NORTHERN AND WESTERN MISSOURI...

CITY           SKY/WX    TMP DP  RH WIND       PRES   REMARKS
KANSAS CTY INT CLOUDY    53  36  52 S15       29.76S
KANSAS C DTWN  MOCLDY    56  35  45 SW13      29.77S
LEE`S SUMMIT   PTCLDY    53  35  50 S15G23    29.79F
ST JOSEPH      MOCLDY    49  35  58 S9        29.73F
CHILLICOTHE      N/A     43  33  68 S6        29.78F
KIRKSVILLE     CLEAR     38  32  79 S7        29.79F

$$
MOZ066>068-077>081-088>096-101>105-290300-
...SOUTHWEST MISSOURI...

CITY           SKY/WX    TMP DP  RH WIND       PRES   REMARKS
SPRINGFIELD    PTCLDY    50  35  56 S9        29.90R
JOPLIN         CLOUDY    56  38  50 S18G26    29.88F

$$
MOZ032>034-039>042-045>050-055>058-069>072-290300-
...CENTRAL MISSOURI...

CITY           SKY/WX    TMP DP  RH WIND       PRES   REMARKS
COLUMBIA       CLEAR     49  35  58 S10       29.84F
JEFFERSON CITY CLEAR     49  33  54 SE7       29.86F
ROLLA          CLEAR     47  33  58 S18       29.87S
SEDALIA        PTCLDY    50  36  58 S10       29.82F
WHITEMAN AFB   PTCLDY    52  37  55 SW14      29.80F
WARRENSBURG    PTCLDY    52  36  54 S14G20    29.80F
OSAGE BEACH    CLEAR     50  34  53 S8        29.87F

$$
MOZ051-052-059>065-290300-
...EAST CENTRAL MISSOURI...

CITY           SKY/WX    TMP DP  RH WIND       PRES   REMARKS
ST LOUIS INTL  CLEAR     46  33  60 S12       29.92F
SPIRIT OF STL  CLEAR     46  32  58 S8        29.91S
ST CHARLES     CLEAR     40  34  79 SE9       29.92S

$$
MOZ072>076-082>087-097>100-106>115-290300-
...SOUTH CENTRAL AND SOUTHEAST MISSOURI...

CITY           SKY/WX    TMP DP  RH WIND       PRES   REMARKS
CAPE GIRARDEAU PTCLDY    44  31  60 S12       30.04F
FARMINGTON     PTCLDY    43  34  70 S13G18    29.96F
POPLAR BLUFF   CLEAR     44  32  62 S12       30.02F
WEST PLAINS    CLEAR     46  32  58 S9        29.97F

$$


USA.gov is the U.S. government's official web portal to all federal, state and local government web resources and services.